Stations météo

réclame
Mon MeteoGroup
Jersey Airport, Grande-Bretagne (3895): Température de l'air & dewpoint: 09.08.2018 00:00:00 - 15.08.2018 00:00:00 (BST)Jersey Airport, Grande-Bretagne (3895): Température de l'air -20cm & Température de l'air -100cm: 09.08.2018 00:00:00 - 15.08.2018 00:00:00 (BST)Jersey Airport, Grande-Bretagne (3895): Vitesse du vent & gusts: 09.08.2018 00:00:00 - 15.08.2018 00:00:00 (BST)Jersey Airport, Grande-Bretagne (3895): Direction du vent: 09.08.2018 00:00:00 - 15.08.2018 00:00:00 (BST)Jersey Airport, Grande-Bretagne (3895): reduced air pressure: 09.08.2018 00:00:00 - 15.08.2018 00:00:00 (BST)Jersey Airport, Grande-Bretagne (3895): visibility: 09.08.2018 00:00:00 - 15.08.2018 00:00:00 (BST)Jersey Airport, Grande-Bretagne (3895): Ensoleillement: 09.08.2018 00:00:00 - 15.08.2018 00:00:00 (BST)Jersey Airport, Grande-Bretagne (3895): Quantités de précipitations: 09.08.2018 00:00:00 - 15.08.2018 00:00:00 (BST)
Date & Time tt [°C] td [°C] tt -20cm [°C] tt -100cm [°C] ff [km/h] ff [knt] fx [km/h] fx [knt] dd ppp [hPa] vv [km] sd [min] rr [mm]
15.08.2018 00:00:00 17,0 15,0 - - 21 11 - - W - 10 - 0,0
14.08.2018 23:00:00 17,1 14,6 - - 22 12 - - W 1022,0 10 0 0,0
14.08.2018 22:00:00 17,0 15,5 - - 22 12 - - W 1021,9 10 0 0,0
14.08.2018 21:00:00 17,2 16,1 - - 22 12 - - W 1021,6 10 0 0,0
14.08.2018 20:00:00 17,3 16,3 - - 22 12 - - W 1021,2 10 0 0,0
14.08.2018 19:00:00 17,7 16,7 - - 21 11 - - W 1020,8 10 0 0,0
14.08.2018 18:00:00 18,0 17,0 - - 24 13 - - W 1021,0 10 0 0,0
14.08.2018 17:00:00 18,3 16,3 - - 21 11 - - W 1021,2 10 0 0,0
14.08.2018 16:00:00 18,6 16,7 - - 22 12 - - W 1021,1 10 0 0,0
14.08.2018 15:00:00 18,8 16,6 - - 22 12 - - W 1021,0 10 12 0,0
14.08.2018 14:00:00 17,8 16,4 - - 24 13 - - W 1020,9 5 0 0,0
14.08.2018 13:00:00 18,5 16,0 - - 24 13 - - W 1020,5 10 0 0,0
14.08.2018 12:00:00 18,5 15,3 - - 24 13 - - W 1020,3 10 18 0,0
14.08.2018 11:00:00 19,2 16,3 - - 18 10 - - W 1020,0 10 24 0,0
14.08.2018 10:00:00 17,9 15,9 18,7 18,4 21 11 - - W 1019,5 10 0 0,0
14.08.2018 09:00:00 17,2 15,7 - - 18 10 - - W 1019,2 10 0 0,0
14.08.2018 08:00:00 16,6 15,6 - - 15 8 - - WNW 1018,8 10 0 0,0
14.08.2018 07:00:00 16,4 15,4 - - 13 7 - - WNW 1018,3 10 0 0,0
14.08.2018 06:00:00 16,3 15,4 - - 11 6 - - WNW 1017,6 10 0 0,0
14.08.2018 05:00:00 16,2 15,7 - - 13 7 - - WNW 1017,2 10 0 0,0
14.08.2018 04:00:00 15,9 15,3 - - 13 7 - - WNW 1016,8 10 0 0,0
14.08.2018 03:00:00 16,0 15,3 - - 15 8 - - WNW 1016,5 10 0 0,0
14.08.2018 02:00:00 16,0 15,2 - - 11 6 - - WNW 1016,1 10 0 0,0
14.08.2018 01:00:00 16,3 15,5 - - 13 7 - - WNW 1015,8 10 - 0,0
14.08.2018 00:00:00 16,5 15,8 - - 18 10 - - WNW 1015,3 10 0 0,0
13.08.2018 23:00:00 16,5 15,9 - - 21 11 - - W 1014,9 10 0 0,0
13.08.2018 22:00:00 16,6 16,0 - - 21 11 - - W 1014,4 10 0 0,0
13.08.2018 21:00:00 16,7 15,7 - - 22 12 - - W 1014,1 10 12 0,0
13.08.2018 20:00:00 17,3 15,4 - - 22 12 - - W 1013,5 10 36 0,0
13.08.2018 19:00:00 17,8 15,1 - - 26 14 - - W 1012,8 10 48 0,0
13.08.2018 18:00:00 18,6 15,7 - - 26 14 - - W 1012,6 10 54 0,0
13.08.2018 17:00:00 18,6 15,1 - - 22 12 - - W 1012,3 10 54 0,0
13.08.2018 16:00:00 19,1 15,6 - - 24 13 - - W 1012,0 10 54 0,0
13.08.2018 15:00:00 19,0 15,7 - - 22 12 - - W 1012,0 10 42 0,0
13.08.2018 14:00:00 18,7 15,6 - - 26 14 - - W 1011,9 10 18 0,0
13.08.2018 13:00:00 18,1 15,4 - - 26 14 - - W 1011,4 10 6 0,0
13.08.2018 12:00:00 18,6 15,5 - - 22 12 - - W 1011,0 10 12 0,0
13.08.2018 11:00:00 17,8 15,5 - - 26 14 - - W 1010,7 10 0 0,0
13.08.2018 10:00:00 17,6 15,8 18,7 18,5 24 13 - - W 1010,2 10 0 0,0
13.08.2018 09:00:00 17,1 15,6 - - 22 12 - - W 1009,8 10 0 0,0
13.08.2018 08:00:00 16,6 15,4 - - 22 12 - - W 1009,2 10 18 0,0
13.08.2018 07:00:00 16,2 15,4 - - 24 13 - - W 1008,5 10 0 0,0
13.08.2018 06:00:00 15,9 15,3 - - 24 13 - - W 1008,1 10 0 0,0
13.08.2018 05:00:00 15,8 15,4 - - 22 12 - - W 1007,7 10 0 0,2
13.08.2018 04:00:00 16,0 15,3 - - 29 16 - - W 1007,4 10 0 0,0
13.08.2018 03:00:00 15,8 15,1 - - 28 15 - - W 1007,6 10 0 0,2
13.08.2018 02:00:00 15,9 15,3 - - 24 13 - - SW 1007,8 3,7 0 0,4
13.08.2018 01:00:00 16,4 15,1 - - 22 12 - - WSW 1008,1 10 - 0,0
13.08.2018 00:00:00 16,4 14,9 - - 22 12 - - WSW 1008,3 10 0 0,0
12.08.2018 23:00:00 16,5 15,3 - - 26 14 - - WSW 1008,5 10 0 0,0
12.08.2018 22:00:00 16,6 15,2 - - 18 10 - - W 1008,8 10 0 0,0
12.08.2018 21:00:00 16,5 15,2 - - 13 7 - - W 1008,5 10 0 0,0
12.08.2018 20:00:00 16,6 15,3 - - 16 9 - - W 1008,4 10 0 0,0
12.08.2018 19:00:00 18,2 16,3 - - 13 7 - - W 1008,0 10 0 0,0
12.08.2018 18:00:00 18,3 17,2 - - 18 10 - - WSW 1008,1 10 0 0,0
12.08.2018 17:00:00 18,5 17,5 - - 21 11 - - S 1008,3 10 0 0,2
12.08.2018 16:00:00 17,7 16,8 - - 22 12 - - SSE 1009,1 10 0 0,6
12.08.2018 15:00:00 17,5 16,1 - - 28 15 - - SE 1009,7 10 0 0,4
12.08.2018 14:00:00 16,2 14,8 - - 22 12 - - SE 1010,4 10 0 2,2
12.08.2018 13:00:00 16,8 15,3 - - 22 12 - - SSE 1011,1 10 0 1,4
12.08.2018 12:00:00 17,6 15,7 - - 26 14 - - SSE 1011,4 10 0 1,6
12.08.2018 11:00:00 18,0 16,3 - - 16 9 - - S 1011,9 10 0 0,0
12.08.2018 10:00:00 17,6 16,5 19,0 18,7 15 8 - - S 1011,8 10 0 0,6
12.08.2018 09:00:00 17,0 15,7 - - 21 11 - - S 1012,5 10 0 0,4
12.08.2018 08:00:00 17,6 15,3 - - 16 9 - - S 1012,6 10 0 0,0
12.08.2018 07:00:00 17,1 15,0 - - 15 8 - - S 1013,6 10 0 0,0
12.08.2018 06:00:00 17,2 14,9 - - 16 9 - - S 1014,0 10 0 0,0
12.08.2018 05:00:00 17,2 14,8 - - 16 9 - - S 1014,3 10 0 0,0
12.08.2018 04:00:00 17,1 15,0 - - 13 7 - - SSE 1014,8 10 0 0,0
12.08.2018 03:00:00 17,3 15,2 - - 13 7 - - S 1015,5 10 0 0,0
12.08.2018 02:00:00 17,6 14,8 - - 13 7 - - SSW 1016,3 10 0 0,0
12.08.2018 01:00:00 17,9 14,5 - - 18 10 - - SSW 1017,0 10 - 0,0
12.08.2018 00:00:00 18,1 14,5 - - 18 10 - - SSW 1017,8 10 0 0,0
11.08.2018 23:00:00 18,7 14,8 - - 18 10 - - SSW 1018,6 10 0 0,0
11.08.2018 22:00:00 19,1 14,6 - - 15 8 - - SSW 1019,2 10 0 0,0
11.08.2018 21:00:00 18,8 15,3 - - 11 6 - - S 1019,4 10 0 0,0
11.08.2018 20:00:00 20,1 14,3 - - 13 7 - - S 1019,6 10 6 0,0
11.08.2018 19:00:00 20,7 13,8 - - 15 8 - - S 1020,0 10 18 0,0
11.08.2018 18:00:00 20,7 14,5 - - 13 7 - - SSW 1020,6 10 6 0,0
11.08.2018 17:00:00 21,4 14,4 - - 21 11 - - S 1021,0 10 18 0,0
11.08.2018 16:00:00 21,6 15,2 - - 21 11 - - S 1021,3 10 24 0,0
11.08.2018 15:00:00 22,1 14,4 - - 15 8 - - SSE 1022,2 10 60 0,0
11.08.2018 14:00:00 21,4 14,0 - - 21 11 - - S 1022,8 10 36 0,0
11.08.2018 13:00:00 19,9 14,7 - - 18 10 - - S 1023,3 10 12 0,0
11.08.2018 12:00:00 19,6 15,1 - - 18 10 - - S 1023,6 10 48 0,0
11.08.2018 11:00:00 19,3 15,2 - - 18 10 - - S 1023,7 10 0 0,0
11.08.2018 10:00:00 18,4 14,6 18,7 18,7 15 8 - - SW 1024,0 10 6 0,0
11.08.2018 09:00:00 17,7 15,0 - - 15 8 - - SW 1024,1 10 0 0,0
11.08.2018 08:00:00 17,0 15,1 - - 15 8 - - WSW 1024,0 10 0 0,0
11.08.2018 07:00:00 16,5 15,5 - - 13 7 - - WSW 1023,9 10 0 0,0
11.08.2018 06:00:00 16,2 15,1 - - 13 7 - - WSW 1023,8 10 0 0,0
11.08.2018 05:00:00 16,0 14,8 - - 13 7 - - W 1024,0 10 0 0,0
11.08.2018 04:00:00 16,0 14,8 - - 16 9 - - W 1023,8 10 0 0,0
11.08.2018 03:00:00 16,2 14,8 - - 18 10 - - W 1023,9 10 0 0,0
11.08.2018 02:00:00 15,8 14,3 - - 16 9 - - W 1024,1 10 0 0,0
11.08.2018 01:00:00 15,8 14,2 - - 21 11 - - W 1024,2 10 - 0,0
11.08.2018 00:00:00 15,9 14,0 - - 22 12 - - W 1024,4 10 0 0,0
10.08.2018 23:00:00 16,3 14,3 - - 22 12 - - W 1024,0 10 0 0,0
10.08.2018 22:00:00 16,4 14,5 - - 24 13 - - W 1023,7 10 0 0,0
10.08.2018 21:00:00 16,5 14,6 - - 26 14 - - W 1023,2 10 0 0,0
10.08.2018 20:00:00 16,7 14,7 - - 28 15 - - W 1022,9 10 30 0,0
10.08.2018 19:00:00 17,6 14,4 - - 35 19 - - WSW 1022,6 10 54 0,0
10.08.2018 18:00:00 18,5 14,7 - - 37 20 48 26 WSW 1022,4 10 18 0,0
10.08.2018 17:00:00 17,1 14,7 - - 35 19 65 35 WSW 1022,4 10 0 0,2
10.08.2018 16:00:00 16,1 13,8 - - 44 24 65 35 W 1022,3 10 12 0,0
10.08.2018 15:00:00 18,5 12,8 - - 34 18 - - W 1022,2 10 6 0,0
10.08.2018 14:00:00 18,6 12,1 - - 26 14 48 26 SW 1022,2 10 18 0,0
10.08.2018 13:00:00 20,2 12,5 - - 35 19 50 27 SW 1022,0 10 54 0,0
10.08.2018 12:00:00 18,4 11,4 - - 31 17 48 26 SW 1022,1 10 24 0,0
10.08.2018 11:00:00 18,4 12,4 - - 34 18 46 25 SW 1022,0 10 18 0,0
10.08.2018 10:00:00 18,3 12,5 18,7 18,9 35 19 - - SW 1021,8 10 30 0,0
10.08.2018 09:00:00 17,0 12,1 - - 31 17 - - SW 1021,8 10 30 0,0
10.08.2018 08:00:00 16,5 11,7 - - 31 17 - - WSW 1021,5 10 60 0,0
10.08.2018 07:00:00 15,2 11,8 - - 34 18 - - WSW 1021,3 10 24 0,0
10.08.2018 06:00:00 14,6 11,7 - - 24 13 - - WSW 1021,2 10 0 0,0
10.08.2018 05:00:00 14,3 11,8 - - 24 13 - - WSW 1021,1 10 0 0,0
10.08.2018 04:00:00 14,3 11,4 - - 24 13 - - WSW 1021,1 10 0 0,0
10.08.2018 03:00:00 14,5 9,8 - - 21 11 - - W 1021,1 10 0 0,0
10.08.2018 02:00:00 15,3 10,9 - - 29 16 - - W 1021,0 10 0 0,0
10.08.2018 01:00:00 14,9 10,4 - - 26 14 - - WSW 1021,1 10 - 0,0
10.08.2018 00:00:00 15,3 10,8 - - 29 16 - - WSW 1020,8 10 0 0,0
09.08.2018 23:00:00 15,5 10,6 - - 28 15 - - W 1020,4 10 0 0,0
09.08.2018 22:00:00 15,7 9,9 - - 28 15 - - W 1020,0 10 0 0,0
09.08.2018 21:00:00 15,5 11,1 - - 24 13 - - W 1019,6 10 18 0,0
09.08.2018 20:00:00 16,2 10,8 - - 26 14 - - W 1019,0 10 60 0,0
09.08.2018 19:00:00 17,2 10,1 - - 29 16 - - W 1018,3 10 60 0,0
09.08.2018 18:00:00 17,9 11,1 - - 29 16 - - W 1018,0 10 60 0,0
09.08.2018 17:00:00 18,0 10,9 - - 29 16 - - W 1017,6 10 60 0,0
09.08.2018 16:00:00 18,2 11,0 - - 29 16 - - W 1017,2 28 60 0,0
09.08.2018 15:00:00 18,0 10,9 - - 28 15 - - W 1016,8 10 36 0,0
09.08.2018 14:00:00 16,6 11,9 - - 22 12 - - W 1016,5 10 0 0,0
09.08.2018 13:00:00 16,1 12,5 - - 18 10 - - WNW 1016,0 10 0 0,0
09.08.2018 12:00:00 15,4 13,3 - - 15 8 - - NW 1015,3 10 0 0,4
09.08.2018 11:00:00 15,2 14,0 - - 15 8 - - NW 1014,9 10 0 0,2
09.08.2018 10:00:00 14,2 13,6 19,7 19,0 5 3 - - - 1014,1 10 0 5,2
09.08.2018 09:00:00 14,1 13,1 - - 5 3 - - WNW 1013,5 10 0 0,2
09.08.2018 08:00:00 13,5 12,4 - - 0 0 - - N 1013,1 10 0 1,4
09.08.2018 07:00:00 14,1 13,8 - - 9 5 - - SE 1013,2 10 0 1,8
09.08.2018 06:00:00 14,3 13,8 - - 8 4 - - E 1013,4 9 0 2,2
09.08.2018 05:00:00 14,5 13,9 - - 5 3 - - SW 1013,6 3,8 0 1,4
09.08.2018 04:00:00 14,4 13,7 - - 4 2 - - S 1013,6 10 0 0,4
09.08.2018 03:00:00 14,3 13,6 - - 9 5 - - SE 1013,4 10 0 0,0
09.08.2018 02:00:00 14,4 13,5 - - 8 4 - - NNW 1013,7 10 0 1,4
09.08.2018 01:00:00 14,9 14,3 - - 0 0 - - N 1015,1 10 - 0,2
09.08.2018 00:00:00 15,0 14,2 - - 4 2 - - - 1015,3 10 0 0,8

tt = Température de l'air
td = dewpoint
tt -20cm = Température de l'air -20cm
tt -100cm = Température de l'air -100cm
ff = Vitesse du vent
fx = gusts
dd = Direction du vent
ppp = reduced air pressure
vv = visibility
sd = Ensoleillement
rr = Quantités de précipitations

stations d'obs. à proximité